Menahga, MN

6:47 AM CST on December 09, 2016 (GMT -0600)
Park Rapids Municipal | | Change Station

Elev 1440 ft 46.90 °N, 95.07 °W | Updated 54 minutes ago

Overcast
Overcast
7 °F
Feels Like -6 °F
N
8
Wind Variable Wind from NW

Today
High -- | Low -- °F
--% Chance of Precip.
Yesterday
High -- | Low -- °F
Precip. -- in
Pressure 30.59 in
Visibility 10.0 miles
Clouds Overcast 2200 ft
Windchill -6 °F
Dew Point 0 °F
Humidity 73%
Rainfall 0.00 in
Snow Depth Not available.
7:53 AM 4:32 PM
Waxing Gibbous, 73% visible
METAR KPKD 091153Z AUTO 31007KT 10SM OVC022 M14/M18 A3048 RMK AO2 SLP358 T11391178 11128 21167 56004
Pressure 30.59 in
Visibility 10.0 miles
Clouds Overcast 2200 ft
Windchill -6 °F
Dew Point 0 °F
Humidity 73%
Rainfall 0.00 in
Snow Depth Not available.
7:53 AM 4:32 PM
Waxing Gibbous, 73% visible
METAR KPKD 091153Z AUTO 31007KT 10SM OVC022 M14/M18 A3048 RMK AO2 SLP358 T11391178 11128 21167 56004

10-Day Weather Forecast

Almanac

Astronomy

Dec. 09, 2016 Rise Set
Actual Time
Civil Twilight
Nautical Twilight
Astronomical Twilight
Moon
Length of Visible Light
Length of Day
Tomorrow will be .
, % of the Moon is Illuminated

Today's Extremes

State Highs State Lows

Community

WunderPhotos

Upload Photos

1,956,407 photos uploaded!

WunderBlog® & News

Nearby

Air Quality

  Air Quality AQ Index Pollutant
Not available.

Snow Depth

Station Depth Elevation

Earthquake Activity

City Distance Mag. Time & Date
Minimum magnitude displayed is 2.5.

Coastal Water Temperatures

Place Temperature

Stations

Nearby Weather Stations

Station Location Temp. Windchill Dew Point Humidity Wind Precip. Elev Updated Type
                   

Watches & Warnings

There are currently no watches in effect.